Showing default

SOLRAD 1 (GREB), 46

Orbit data source: Space-Track

SOLRAD 1 (GREB), 46 is a payload satellite owned by NRL (US) in LEO that was launched on Wed, 22 Jun 1960 UTC via a THOR ABLESTAR launch vehicle from the Air Force Eastern Test Range (AFETR). Payload-class satellites include a variety of spacecraft equipped with specific instruments for various scientific and technological missions. These include communications satellites like Starlink; space stations such as the ISS; scientific satellites like the Hubble; Earth observation satellites from companies like Planet Labs, Umbra, and HawkEye 360; GPS; miniature CubeSats for education and research; and military/defense satellites.

Loading next visibility...
Identifier
46, 1960-007B
Orbit
LEO
Country
Flag of USUS
Related business
Manufacturer
NRL
Mission
Spacecraft
Bus & Motor
NRL 20", Unknown motor
Mass
19 kg wet, 19 kg dry
Launch date (UTC)
1960-06-22 (66 years ago)
Launch vehicle
THOR ABLESTAR
Launch site
Air Force Eastern Test Range (AFETR)
Object type
Payload
Rocket body
Debris
Shape & HBR
Unknown
Radar Cross Section
Medium (>0.1 m² and <1 m²)

Expand to show TLE details & history
Last TLE update: 1 day ago

TLE from 1 day ago
0 SOLRAD 1 (GREB)
1 00046U 60007B   26140.48254419  .00000210  00000-0  59041-4 0  9999
2 00046  66.6880 303.7767 0200486 312.7069  45.7307 14.54841292452970
Epoch: 2026-05-20T11:34Z
TLE epoch observation values (Epoch: 2026-05-20T11:34:51.818Z)
Latitude
-0°
Longitude
-108.08067°
Altitude
614.3 km
Speed
7.604 km/s
True Right ascension
20h 15m 06s
True Declination
0° 00' 00"
Sunlit
Object was in daylight at epoch
Visualization orbit readout
Latitude
Unknown
Longitude
Unknown
Altitude
Unknown
Speed
Unknown
Apparent Right ascension
Unknown
Apparent Declination
Unknown
Sunlit
N/A
Visualization observer readout
Local Sidereal Time
20:14:53
Azimuth
Unknown
Elevation
Unknown
Doppler factor
Unknown
Orbital elements
Apogee altitude
850.309 km
Perigee altitude
566.165 km
Semi-major axis
7,086.374 km
Eccentricity
0.02005
Inclination
66.688°
RAAN
303.7767°
Arg. of periapsis
312.7069°
True anomaly
47.40482°
Mean anomaly
45.7307°
Eccentric anomaly
46.56483°
Mean motion
3.63837 °/min
Orbital period
98.95 mins
BSTAR
0.000059041
Loading maneuver chart data...
Computing Atmospheric mass density...
Loading historical data...
Loading historical data...
Loading historical data...
Loading historical data...
Loading historical data...
Loading historical data...
Loading historical data...

Documentation

Showing up to 5 results
|